カタログに戻る

CZ-6A DEB

運用中PO
NORAD 64638·DEBRIS·🇨🇳 China

打ち上げ Aug 6, 2024 から Taiyuan Satellite Launch Center

Loading…

次のパス (今後24時間)

TLE

最新Source: Space-Track

元期: Sep 13, 2026, 10:05 UTC

1 64638U 24140AEC 26256.42053892  .00004547  00000-0  12158-2 0  9991
2 64638  88.8592 248.7497 0050042  58.1530 302.4532 14.47433188104684

AllMySatでCZ-6A DEBをリアルタイム追跡

Download on the App Store